| time (UTC) | temp F | wind direction | speed MPH | gust MPH | rain 1hr in | rain 24hr in | rain mn in | humidity % | barometer mb |
| 20260504081557 | 49 | 0 | 0.0 | 1.0 | 0.00 | 0.00 | 0.00 | 76 | 1002.5 |
| 20260504044555 | 57 | 275 | 0.0 | 3.0 | 0.00 | 0.00 | 0.00 | 63 | 1003.9 |
| 20260504043111 | 57 | 278 | 2.0 | 5.0 | 0.00 | 0.00 | 0.00 | 62 | 1003.9 |
| 20260504041552 | 57 | 260 | 2.0 | 6.0 | 0.00 | 0.00 | 0.00 | 62 | 1004.0 |
| 20260504040055 | 55 | 248 | 2.0 | 4.0 | 0.00 | 0.00 | 0.00 | 68 | 1003.9 |
| 20260504034555 | 52 | 0 | 0.0 | 2.0 | 0.00 | 0.00 | 0.00 | 77 | 1003.9 |
| 20260504033116 | 53 | 0 | 0.0 | 0.0 | 0.00 | 0.00 | 0.00 | 75 | 1004.0 |
| 20260504031557 | 53 | 0 | 0.0 | 0.0 | 0.00 | 0.00 | 0.00 | 76 | 1004.0 |
| 20260504030114 | 54 | 0 | 0.0 | 0.0 | 0.00 | 0.00 | 0.00 | 75 | 1004.0 |
| 20260504024553 | 55 | 0 | 0.0 | 1.0 | 0.00 | 0.00 | 0.00 | 73 | 1004.0 |
| 20260504023055 | 56 | 0 | 0.0 | 1.0 | 0.00 | 0.00 | 0.00 | 68 | 1003.8 |
| 20260504021558 | 57 | 0 | 0.0 | 1.0 | 0.00 | 0.00 | 0.00 | 62 | 1003.7 |
| 20260504020105 | 58 | 255 | 0.0 | 1.0 | 0.00 | 0.00 | 0.00 | 64 | 1003.8 |
| 20260504014554 | 60 | 0 | 0.0 | 1.0 | 0.00 | 0.00 | 0.00 | 58 | 1003.7 |
| 20260504013055 | 61 | 268 | 0.0 | 1.0 | 0.00 | 0.00 | 0.00 | 58 | 1003.8 |
| 20260504011553 | 63 | 239 | 0.0 | 2.0 | 0.00 | 0.00 | 0.00 | 52 | 1003.6 |
| 20260504010101 | 64 | 242 | 0.0 | 2.0 | 0.00 | 0.00 | 0.00 | 46 | 1003.6 |
| 20260504004556 | 65 | 248 | 1.0 | 4.0 | 0.00 | 0.00 | 0.00 | 45 | 1003.5 |
| 20260504003104 | 66 | 256 | 3.0 | 5.0 | 0.00 | 0.00 | 0.00 | 42 | 1003.5 |
| 20260504001602 | 67 | 248 | 4.0 | 7.0 | 0.00 | 0.00 | 0.00 | 41 | 1003.3 |
| 20260504000104 | 67 | 255 | 5.0 | 11.0 | 0.00 | 0.00 | 0.00 | 40 | 1003.4 |
| 20260503234551 | 68 | 233 | 5.0 | 10.0 | 0.00 | 0.00 | 0.00 | 40 | 1003.4 |
| 20260503233055 | 68 | 235 | 4.0 | 18.0 | 0.00 | 0.00 | 0.00 | 40 | 1003.5 |
| 20260503231551 | 68 | 288 | 5.0 | 14.0 | 0.00 | 0.00 | 0.00 | 40 | 1003.6 |
| 20260503230110 | 68 | 242 | 8.0 | 13.0 | 0.00 | 0.00 | 0.00 | 40 | 1003.6 |
| 20260503224554 | 68 | 250 | 7.0 | 17.0 | 0.00 | 0.00 | 0.00 | 39 | 1003.8 |
| 20260503223109 | 67 | 235 | 7.0 | 17.0 | 0.00 | 0.00 | 0.00 | 40 | 1003.9 |
| 20260503221555 | 67 | 256 | 10.0 | 16.0 | 0.00 | 0.00 | 0.00 | 40 | 1004.1 |
| 20260503220054 | 67 | 243 | 8.0 | 19.0 | 0.00 | 0.00 | 0.00 | 41 | 1004.1 |
| 20260503214601 | 67 | 226 | 10.0 | 17.0 | 0.00 | 0.00 | 0.00 | 41 | 1004.0 |
| 20260503213056 | 66 | 243 | 7.0 | 23.0 | 0.00 | 0.00 | 0.00 | 42 | 1004.5 |
| 20260503211602 | 66 | 288 | 8.0 | 20.0 | 0.00 | 0.00 | 0.00 | 42 | 1004.5 |
| 20260503210052 | 65 | 270 | 8.0 | 16.0 | 0.00 | 0.00 | 0.00 | 43 | 1004.7 |
| 20260503204555 | 65 | 191 | 12.0 | 19.0 | 0.00 | 0.00 | 0.00 | 41 | 1005.0 |
| 20260503203057 | 65 | 261 | 11.0 | 17.0 | 0.00 | 0.00 | 0.00 | 41 | 1005.1 |
| 20260503201555 | 63 | 235 | 7.0 | 19.0 | 0.00 | 0.00 | 0.00 | 48 | 1005.3 |
| 20260503200057 | 63 | 292 | 13.0 | 21.0 | 0.00 | 0.00 | 0.00 | 49 | 1005.7 |
| 20260503194619 | 63 | 235 | 10.0 | 22.0 | 0.00 | 0.00 | 0.00 | 49 | 1006.0 |
| 20260503193052 | 62 | 249 | 11.0 | 23.0 | 0.00 | 0.00 | 0.00 | 48 | 1006.4 |
| 20260503191557 | 62 | 246 | 12.0 | 20.0 | 0.00 | 0.00 | 0.00 | 45 | 1006.4 |
| 20260503190052 | 63 | 218 | 10.0 | 26.0 | 0.00 | 0.00 | 0.00 | 45 | 1006.5 |
| 20260503184552 | 63 | 232 | 12.0 | 23.0 | 0.00 | 0.00 | 0.00 | 43 | 1006.6 |
| 20260503183104 | 63 | 132 | 9.0 | 23.0 | 0.00 | 0.00 | 0.00 | 44 | 1006.8 |
| 20260503181605 | 62 | 242 | 12.0 | 24.0 | 0.00 | 0.00 | 0.00 | 43 | 1006.9 |
| 20260503180054 | 61 | 274 | 12.0 | 20.0 | 0.00 | 0.00 | 0.00 | 45 | 1006.9 |
| 20260503174606 | 60 | 242 | 10.0 | 24.0 | 0.00 | 0.00 | 0.00 | 49 | 1007.4 |
| 20260503173105 | 59 | 162 | 9.0 | 18.0 | 0.00 | 0.00 | 0.00 | 52 | 1007.6 |
| 20260503171554 | 58 | 242 | 13.0 | 27.0 | 0.00 | 0.00 | 0.00 | 54 | 1008.0 |
| 20260503170103 | 56 | 238 | 11.0 | 20.0 | 0.00 | 0.00 | 0.00 | 56 | 1008.2 |
| 20260503120112 | 49 | 262 | 9.0 | 15.0 | 0.00 | 0.01 | 0.00 | 54 | 1010.7 |